Hourly Weather Chahuite

Today, 15 June, Tuesday

Time Temperature Precipitation Wind Pressure Humidity
00:00 +19°C° 0 mm 1 mps 653 mmHg 98%
01:00 +17°C° 2.8 mm 0 mps 652 mmHg 98%
02:00 +16°C° 2.8 mm 0 mps 652 mmHg 98%
03:00 +16°C° 2.8 mm 0 mps 652 mmHg 98%
04:00 +16°C° 2.5 mm 0 mps 652 mmHg 98%
05:00 +16°C° 2.5 mm 0 mps 652 mmHg 98%
06:00 +16°C° 0 mm 0 mps 652 mmHg 98%
07:00 +16°C° 0.1 mm 0 mps 652 mmHg 97%
08:00 +16°C° 0.1 mm 0 mps 653 mmHg 97%
09:00 +17°C° 0.1 mm 0 mps 653 mmHg 96%
10:00 +17°C° 0 mm 0 mps 653 mmHg 90%
11:00 +18°C° 0 mm 0 mps 653 mmHg 85%
12:00 +19°C° 0 mm 0 mps 654 mmHg 79%
13:00 +19°C° 0.1 mm 0 mps 653 mmHg 80%
14:00 +19°C° 0.1 mm 0 mps 653 mmHg 82%
15:00 +19°C° 0.1 mm 0 mps 652 mmHg 83%
16:00 +19°C° 0.2 mm 0 mps 652 mmHg 86%
17:00 +18°C° 0.2 mm 0 mps 652 mmHg 90%
18:00 +17°C° 0.2 mm 0 mps 652 mmHg 93%
19:00 +17°C° 0.1 mm 0 mps 652 mmHg 94%
20:00 +17°C° 0.1 mm 0 mps 652 mmHg 95%
21:00 +16°C° 0.1 mm 0 mps 653 mmHg 96%
22:00 +16°C° 0.3 mm 0 mps 653 mmHg 96%
23:00 +16°C° 0.3 mm 0 mps 652 mmHg 96%

Tomorrow, 16 June, Wednesday

Time Temperature Precipitation Wind Pressure Humidity
00:00 +16°C° 0.3 mm 0 mps 652 mmHg 96%
01:00 +16°C° 1.1 mm 0 mps 652 mmHg 97%
02:00 +16°C° 1.1 mm 0 mps 652 mmHg 97%
03:00 +18°C° 1.1 mm 1 mps 651 mmHg 98%
04:00 +16°C° 0.9 mm 0 mps 651 mmHg 98%
05:00 +16°C° 0.9 mm 0 mps 651 mmHg 98%
06:00 +15°C° 0.9 mm 0 mps 651 mmHg 98%
07:00 +16°C° 0.9 mm 0 mps 652 mmHg 98%
08:00 +16°C° 0.9 mm 0 mps 652 mmHg 98%
09:00 +16°C° 0.9 mm 0 mps 653 mmHg 97%
10:00 +16°C° 0.8 mm 0 mps 653 mmHg 98%
11:00 +18°C° 0.8 mm 1 mps 653 mmHg 98%
12:00 +18°C° 0.8 mm 1 mps 653 mmHg 98%
13:00 +18°C° 0.4 mm 1 mps 652 mmHg 97%
14:00 +16°C° 0.4 mm 0 mps 652 mmHg 97%
15:00 +16°C° 0.4 mm 0 mps 651 mmHg 97%
16:00 +16°C° 0.1 mm 0 mps 651 mmHg 97%
17:00 +16°C° 0.1 mm 0 mps 651 mmHg 97%
18:00 +16°C° 0.1 mm 0 mps 651 mmHg 97%
19:00 +16°C° 0.8 mm 0 mps 652 mmHg 97%
20:00 +16°C° 0.8 mm 0 mps 652 mmHg 98%
21:00 +16°C° 0.8 mm 0 mps 652 mmHg 98%
22:00 +16°C° 1.8 mm 0 mps 652 mmHg 98%
23:00 +16°C° 1.8 mm 0 mps 652 mmHg 98%

Day after tomorrow, 17 June, Thursday

Time Temperature Precipitation Wind Pressure Humidity
00:00 +16°C° 1.8 mm 0 mps 652 mmHg 98%
01:00 +16°C° 0.3 mm 0 mps 652 mmHg 98%
02:00 +16°C° 0.3 mm 0 mps 651 mmHg 98%
03:00 +16°C° 0.3 mm 0 mps 651 mmHg 98%
04:00 +16°C° 0.1 mm 0 mps 651 mmHg 98%
05:00 +16°C° 0.1 mm 0 mps 651 mmHg 97%
06:00 +16°C° 0.1 mm 0 mps 651 mmHg 97%
07:00 +17°C° 0 mm 0 mps 652 mmHg 94%
08:00 +18°C° 0 mm 0 mps 652 mmHg 92%
09:00 +19°C° 0 mm 0 mps 653 mmHg 89%
10:00 +19°C° 0.9 mm 0 mps 653 mmHg 88%
11:00 +20°C° 0.9 mm 0 mps 653 mmHg 88%
12:00 +22°C° 0.9 mm 1 mps 653 mmHg 87%
13:00 +22°C° 1.6 mm 1 mps 652 mmHg 89%
14:00 +22°C° 1.6 mm 1 mps 652 mmHg 91%
15:00 +19°C° 1.6 mm 0 mps 652 mmHg 93%
16:00 +19°C° 2.4 mm 0 mps 652 mmHg 94%
17:00 +18°C° 2.4 mm 0 mps 652 mmHg 95%
18:00 +18°C° 2.4 mm 0 mps 651 mmHg 97%
19:00 +17°C° 2.7 mm 0 mps 652 mmHg 97%
20:00 +17°C° 2.7 mm 0 mps 652 mmHg 98%
21:00 +16°C° 2.7 mm 0 mps 652 mmHg 98%
22:00 +16°C° 3 mm 0 mps 652 mmHg 98%
23:00 +16°C° 3 mm 0 mps 652 mmHg 98%

18 June, Friday

Time Temperature Precipitation Wind Pressure Humidity
00:00 +16°C° 3 mm 0 mps 653 mmHg 99%
01:00 +16°C° 3.5 mm 0 mps 652 mmHg 99%
02:00 +16°C° 3.5 mm 0 mps 652 mmHg 99%
03:00 +16°C° 3.5 mm 0 mps 652 mmHg 99%
04:00 +16°C° 1.3 mm 0 mps 652 mmHg 98%
05:00 +16°C° 1.3 mm 0 mps 652 mmHg 98%
06:00 +16°C° 1.3 mm 0 mps 652 mmHg 98%
07:00 +16°C° 0.1 mm 0 mps 652 mmHg 97%
08:00 +17°C° 0.1 mm 0 mps 653 mmHg 96%
09:00 +17°C° 0.1 mm 0 mps 653 mmHg 95%
10:00 +19°C° 0 mm 0 mps 653 mmHg 88%
11:00 +20°C° 0 mm 0 mps 654 mmHg 81%
12:00 +22°C° 0 mm 0 mps 654 mmHg 73%
13:00 +22°C° 0.6 mm 0 mps 653 mmHg 76%
14:00 +21°C° 0.6 mm 0 mps 653 mmHg 80%
15:00 +21°C° 0.6 mm 0 mps 653 mmHg 83%
16:00 +20°C° 0.7 mm 0 mps 652 mmHg 86%
17:00 +20°C° 0.7 mm 0 mps 652 mmHg 90%
18:00 +19°C° 0.7 mm 0 mps 652 mmHg 94%
19:00 +18°C° 0.2 mm 0 mps 653 mmHg 95%
20:00 +18°C° 0.2 mm 0 mps 653 mmHg 96%
21:00 +17°C° 0.2 mm 0 mps 653 mmHg 97%
22:00 +17°C° 0 mm 0 mps 653 mmHg 97%
23:00 +18°C° 0 mm 1 mps 653 mmHg 97%

19 June, Saturday

Time Temperature Precipitation Wind Pressure Humidity
00:00 +18°C° 0 mm 1 mps 653 mmHg 97%
01:00 +18°C° 0 mm 1 mps 653 mmHg 97%
02:00 +18°C° 0 mm 1 mps 652 mmHg 96%
03:00 +16°C° 0 mm 1 mps 652 mmHg 96%
04:00 +16°C° 0 mm 1 mps 652 mmHg 96%
05:00 +16°C° 0 mm 1 mps 652 mmHg 96%
06:00 +18°C° 0 mm 1 mps 652 mmHg 96%
07:00 +19°C° 0 mm 1 mps 653 mmHg 89%
08:00 +21°C° 0 mm 1 mps 654 mmHg 82%
09:00 +23°C° 0 mm 1 mps 654 mmHg 75%
10:00 +25°C° 0 mm 1 mps 655 mmHg 68%
11:00 +26°C° 0 mm 1 mps 655 mmHg 61%
12:00 +28°C° 0 mm 1 mps 655 mmHg 54%
13:00 +28°C° 0.1 mm 1 mps 654 mmHg 56%
14:00 +27°C° 0.1 mm 1 mps 654 mmHg 57%
15:00 +27°C° 0.1 mm 1 mps 653 mmHg 59%
16:00 +26°C° 0.2 mm 1 mps 653 mmHg 67%
17:00 +24°C° 0.2 mm 1 mps 653 mmHg 75%
18:00 +23°C° 0.2 mm 1 mps 653 mmHg 83%
19:00 +22°C° 0 mm 1 mps 653 mmHg 87%
20:00 +21°C° 0 mm 1 mps 653 mmHg 92%
21:00 +19°C° 0 mm 1 mps 653 mmHg 96%
22:00 +19°C° 0 mm 1 mps 653 mmHg 96%
23:00 +19°C° 0 mm 1 mps 653 mmHg 96%

20 June, Sunday

Time Temperature Precipitation Wind Pressure Humidity
00:00 +19°C° 0 mm 1 mps 653 mmHg 96%
01:00 +18°C° 0 mm 1 mps 653 mmHg 96%
02:00 +18°C° 0 mm 1 mps 653 mmHg 97%
03:00 +18°C° 0 mm 1 mps 652 mmHg 97%
04:00 +18°C° 0 mm 1 mps 652 mmHg 97%
05:00 +18°C° 0 mm 1 mps 652 mmHg 96%
06:00 +18°C° 0 mm 1 mps 652 mmHg 96%
07:00 +20°C° 0 mm 1 mps 653 mmHg 85%
08:00 +22°C° 0 mm 1 mps 654 mmHg 75%
09:00 +25°C° 0 mm 1 mps 654 mmHg 64%
10:00 +26°C° 0 mm 1 mps 655 mmHg 60%
11:00 +27°C° 0 mm 2 mps 655 mmHg 55%
12:00 +28°C° 0 mm 2 mps 655 mmHg 51%
13:00 +28°C° 0 mm 2 mps 654 mmHg 51%
14:00 +28°C° 0 mm 2 mps 654 mmHg 52%
15:00 +28°C° 0 mm 2 mps 653 mmHg 52%
16:00 +27°C° 0 mm 2 mps 653 mmHg 60%
17:00 +25°C° 0 mm 2 mps 653 mmHg 67%
18:00 +24°C° 0 mm 1 mps 652 mmHg 75%
19:00 +22°C° 0 mm 1 mps 652 mmHg 81%
20:00 +21°C° 0 mm 1 mps 652 mmHg 87%
21:00 +18°C° 0 mm 2 mps 652 mmHg 93%
22:00 +18°C° 0 mm 2 mps 652 mmHg 93%
23:00 +18°C° 0 mm 2 mps 652 mmHg 92%
Show more

We Need Your Consent

Meteoprog and our Service Providers may store and access personal data such as cookies, device identifiers or other similar technologies on your device and process such data to personalise content and ads, as well as provide social media features and to analyse the traffic.

  • Store and/or access information on your device

    Cookies, device identifiers or other information can be stored or accessed on your device for the purposes indicated above.

  • Personalised ads and content, ad and content measurement, audience insights, and products development

    Ads and content can be personalised based on a profile. More data can be added to better personalise ads and content. Ad and content performance can be measured. Insights about the audience who saw the ads and content can be derived. Such data can be used to develop or improve user’s experience, systems and software.

By clicking ‘I Agree’ you will allow the use of indicated cookies, device identifiers, web beacons or other similar technologies. Your settings can be changed in the browser on your device.

For certain purposes, legitimate interests may be relied on, rather than consent. You can read more about this in our Privacy and Cookie Policy.